sat.trackr.live / text

‹ back to catalog

STARLINK-5953

NORAD 56799 · 2023-078AJ

PAYLOAD ACTIVE UNKNOWN

§ Identity

Operator
Country
US
Launch date
2023-05-31
Launch site
AFWTR
Launch vehicle
Mass (kg)
RCS (m²)

Purposes: comms

External: N2YO · Heavens-Above · Gunter

§ Orbital elements

Epoch: 2026-05-25T03:45:46.719072Z

Period
96.11 min
Inclination
69.9984°
Eccentricity
0.0003714
Mean motion
14.98329741 rev/d
Perigee alt
569.5 km
Apogee alt
574.6 km
Semi-major
6,950.2 km
B*
4.4014e-5
RAAN
151.6762°
Arg perigee
267.5289°
Mean anomaly
92.5444°
Rev number
16,413

§ Raw data

STARLINK-59531 56799U 23078AJ  26145.15679073  .00000432  00000+0  44014-4 0  99972 56799  69.9984 151.6762 0003714 267.5289  92.5444 14.98329741164136

JSON: /api/v1/satellites/56799 · /tle

For live sub-satellite position, see the globe view (requires WebGL).

§ Visibility from observer

Set your observer location to see the next 7 days of passes ≥ 10°. The values pass through the URL so the page stays shareable.

No JS? Fill the form by hand. The geolocation button needs JavaScript.